{"data":{"norad_id":60048,"epoch":"2026-09-21T15:36:28.346976Z","epoch_age_seconds":78808,"freshness":"FRESH","line1":"1 60048U 24112L   26264.65032809 -.00000294  00000+0  24258-5 0  9992","line2":"2 60048  53.1595  19.9184 0000916  60.5541 299.5569 15.69706017131762","mean_motion":15.69706017,"eccentricity":9.16e-5,"inclination_deg":53.1595,"raan_deg":19.9184,"arg_perigee_deg":60.5541,"mean_anomaly_deg":299.5569,"bstar":2.4258e-6,"rev_number":13176,"period_min":91.736922990976,"perigee_km":359.12095890169,"apogee_km":360.35533762885,"semimajor_km":6737.8751482653,"source":"CELESTRAK","updated_at":"2026-09-22T09:00:49.143847Z"}}